Lapse_Rate
6.7 6.7 6.9 7.0 6.9 6.8 6.8 6.8 6.8 6.7 6.7 6.6 6.4 6.2 6.1 6.0 6.0 6.0 5.9 5.9 5.9 5.9 6.0 6.2 6.1 6.1 6.1 6.3 6.4 6.5 6.5 6.4 6.4 6.4 6.0 6.0 5.9 6.1 6.2 6.2 6.3 6.4 6.3
6.7 6.8 6.9 6.9 6.9 6.9 6.9 6.8 6.8 6.7 6.5 6.3 6.2 6.2 6.0 5.9 5.9 5.8 5.9 5.9 5.9 5.9 5.8 5.9 6.0 6.1 6.1 6.2 6.2 6.3 6.4 6.5 6.4 6.3 6.4 5.9 6.3 6.0 6.1 6.1 6.2 6.4 6.3
6.9 7.0 7.1 7.1 7.0 7.0 6.9 6.9 6.9 6.7 6.6 6.4 6.4 6.2 6.0 5.9 5.8 5.8 5.9 5.9 5.9 5.9 5.9 5.9 6.0 6.0 6.1 6.2 6.4 6.4 6.4 6.5 6.4 6.3 6.2 6.3 6.4 6.4 6.3 6.1 6.3 6.5 6.5
7.0 7.2 7.1 7.1 7.1 7.1 7.1 7.0 7.0 6.8 6.6 6.4 6.3 6.2 6.1 6.1 6.0 6.0 6.0 5.9 5.8 5.9 6.0 6.0 6.0 6.1 6.1 6.2 6.5 6.5 6.5 6.5 6.6 6.5 6.3 6.2 6.5 6.6 6.2 6.4 6.2 6.3 6.3
7.1 7.2 7.2 7.2 7.2 7.2 7.1 7.1 7.2 7.1 6.8 6.6 6.3 6.2 6.1 6.1 6.1 6.1 6.1 6.1 6.1 6.2 6.1 6.2 6.2 6.2 6.2 6.3 6.5 6.8 6.9 6.8 6.8 6.8 6.6 6.4 6.3 6.6 6.6 6.3 6.5 6.2 6.4
7.2 7.2 7.3 7.2 7.1 7.1 7.2 7.2 7.2 7.0 6.7 6.3 6.2 6.3 6.3 6.2 6.1 6.1 6.1 6.2 6.4 6.6 6.7 6.7 6.6 6.7 6.6 6.5 6.6 6.7 6.9 6.9 7.0 7.0 6.9 6.6 6.4 6.4 6.6 6.5 6.4 6.4 6.1
7.2 7.2 7.2 7.2 7.2 7.2 7.2 7.2 7.1 6.8 6.5 6.5 6.4 6.4 6.4 6.4 6.3 6.3 6.4 6.5 6.5 6.6 6.6 6.6 6.5 6.5 6.5 6.6 6.7 6.7 6.8 6.9 7.0 7.1 7.1 6.9 6.7 6.5 6.5 6.5 6.5 6.4 6.7
7.3 7.3 7.2 7.2 7.2 7.2 7.0 7.0 6.8 6.7 6.6 6.6 6.6 6.6 6.6 6.5 6.5 6.4 6.3 6.4 6.3 6.3 6.5 6.6 6.6 6.6 6.7 6.7 6.6 6.6 6.5 6.6 6.8 6.9 7.0 7.0 6.8 6.6 6.2 6.5 6.5 6.6 6.6
7.2 7.2 7.2 7.1 7.0 6.9 6.8 6.7 6.7 6.9 6.8 6.7 6.6 6.5 6.4 6.5 6.4 6.4 6.3 6.3 6.4 6.5 6.4 6.5 6.6 6.7 6.7 6.6 6.6 6.4 6.3 6.2 6.1 6.3 6.6 6.6 6.6 6.6 6.5 6.2 6.3 6.4 6.4
7.1 7.0 6.9 6.8 6.8 6.7 6.8 6.9 7.0 6.9 6.7 6.7 6.6 6.6 6.5 6.4 6.3 6.4 6.3 6.4 6.4 6.4 6.4 6.4 6.4 6.4 6.3 6.3 6.2 6.0 5.9 5.7 5.6 5.7 5.7 5.9 6.1 6.2 6.2 6.2 6.2 6.3 6.3
6.8 6.8 6.8 6.7 6.7 6.8 6.8 6.8 6.9 6.8 6.8 6.8 6.7 6.7 6.7 6.6 6.5 6.5 6.4 6.3 6.2 6.3 6.3 6.4 6.3 6.2 6.2 6.2 6.1 6.0 5.7 5.6 5.5 5.4 5.5 5.6 5.6 5.6 5.6 5.9 6.0 6.0 6.2
6.8 6.7 6.7 6.7 6.7 6.8 6.8 6.9 6.9 6.8 6.8 6.8 6.7 6.7 6.7 6.7 6.6 6.5 6.3 6.2 6.3 6.3 6.3 6.3 6.2 6.2 6.3 6.2 6.1 5.9 5.8 5.6 5.5 5.4 5.3 5.1 5.1 5.3 5.4 5.3 5.5 5.8 5.9
6.7 6.6 6.7 6.8 6.8 6.8 6.9 6.8 6.7 6.8 6.7 6.6 6.6 6.7 6.7 6.6 6.4 6.3 6.3 6.3 6.3 6.4 6.4 6.4 6.4 6.4 6.4 6.3 6.2 6.0 5.8 5.6 5.5 5.3 5.1 5.1 5.0 5.0 5.1 5.1 5.1 5.3 5.6
6.7 6.9 7.0 7.0 6.9 6.9 6.9 6.9 6.8 6.7 6.6 6.5 6.6 6.6 6.4 6.3 6.2 6.2 6.1 6.2 6.3 6.3 6.3 6.2 6.2 6.3 6.3 6.3 6.3 6.2 6.1 6.0 6.0 5.8 5.5 5.3 5.2 5.1 5.0 5.0 5.0 4.9 5.0
7.0 7.1 7.1 7.1 7.1 7.0 6.9 6.7 6.6 6.5 6.5 6.6 6.6 6.4 6.2 6.2 6.1 6.0 6.1 6.1 6.1 6.2 6.2 6.1 6.1 6.1 6.1 6.2 6.3 6.3 6.3 6.2 6.3 6.5 6.4 6.0 5.6 5.4 5.2 5.1 5.1 5.1 4.7
7.2 7.2 7.2 7.2 7.1 6.9 6.7 6.6 6.6 6.5 6.6 6.6 6.4 6.2 6.1 6.0 6.0 6.0 6.1 6.0 6.0 6.1 6.2 6.1 6.0 6.0 6.0 6.0 6.1 6.2 6.3 6.3 6.2 6.2 6.4 6.4 6.1 5.7 5.5 5.3 5.1 5.2 5.2
7.3 7.3 7.3 7.4 7.0 6.7 6.6 6.6 6.6 6.6 6.5 6.4 6.2 6.0 5.9 5.9 6.0 6.0 5.9 6.0 6.0 5.9 6.0 5.9 5.9 5.8 5.8 5.9 5.9 5.9 6.0 6.1 6.1 6.1 6.0 6.3 6.3 6.0 5.7 5.5 5.1 5.1 5.3
7.4 7.4 7.4 7.2 6.9 6.6 6.7 6.7 6.7 6.6 6.4 6.2 6.0 6.0 6.0 5.9 6.0 5.9 5.9 6.0 5.9 5.7 5.7 5.7 5.8 5.7 5.7 5.7 5.7 5.8 5.9 6.0 6.1 6.0 6.0 6.1 6.2 6.2 5.9 5.7 5.5 5.3 5.1
7.5 7.3 7.1 7.0 6.8 6.7 6.8 6.9 6.7 6.5 6.4 6.1 5.9 5.9 5.8 5.9 5.8 5.8 5.8 5.7 5.7 5.6 5.6 5.7 5.8 5.8 5.6 5.6 5.7 5.6 5.6 5.9 5.8 6.0 5.9 6.0 6.0 6.0 6.1 6.0 5.8 5.6 5.4
7.2 7.1 6.9 6.7 6.5 6.6 6.9 6.8 6.6 6.5 6.3 5.9 5.8 5.7 5.6 5.6 5.7 5.7 5.6 5.5 5.5 5.6 5.5 5.6 5.7 5.6 5.6 5.6 5.5 5.3 5.3 5.3 5.6 5.7 5.8 6.0 5.9 5.8 5.9 6.0 6.0 5.8 5.7
7.3 6.7 6.4 6.5 6.4 6.7 6.8 6.7 6.6 6.4 6.0 5.7 5.6 5.6 5.5 5.5 5.5 5.5 5.4 5.4 5.5 5.5 5.6 5.6 5.5 5.4 5.4 5.3 5.4 5.3 5.3 5.3 5.3 5.5 5.4 5.9 5.9 5.8 5.6 5.6 5.7 5.9 5.8
6.9 6.3 6.4 6.3 6.1 6.7 6.7 6.6 6.5 6.2 5.8 5.6 5.6 5.5 5.5 5.4 5.3 5.3 5.3 5.4 5.4 5.5 5.5 5.5 5.5 5.4 5.4 5.4 5.4 5.4 5.4 5.4 5.1 5.3 5.4 5.4 5.7 6.0 5.9 5.8 5.7 5.7 5.8
6.7 6.3 6.4 6.5 6.4 6.5 6.6 6.5 6.3 5.8 5.5 5.5 5.5 5.4 5.3 5.3 5.4 5.3 5.1 5.2 5.3 5.4 5.5 5.7 5.7 5.6 5.5 5.2 5.3 5.3 5.5 5.6 5.6 5.7 5.5 5.4 5.4 5.6 6.1 6.2 5.8 5.6 5.6
6.4 6.4 6.6 6.2 6.0 6.4 6.5 6.3 6.1 5.8 5.5 5.3 5.2 5.2 5.2 5.3 5.3 5.2 5.2 5.2 5.2 5.4 5.4 5.5 5.5 5.5 5.6 5.5 5.3 5.4 5.5 5.5 5.6 5.8 5.9 5.8 5.6 5.6 5.8 6.2 6.2 5.8 5.7
6.5 6.6 6.6 6.3 6.1 6.3 6.3 6.1 6.0 5.7 5.5 5.3 5.1 5.1 5.1 5.0 4.9 5.0 5.0 5.2 5.4 5.5 5.5 5.6 5.6 5.5 5.4 5.4 5.4 5.3 5.2 5.2 5.1 5.2 5.4 5.6 5.6 5.8 5.9 6.1 6.2 6.0 5.8
6.7 6.6 6.4 5.7 5.9 6.2 6.1 5.9 5.8 5.5 5.3 5.0 4.9 4.8 4.8 4.7 4.7 4.8 4.9 5.1 5.2 5.3 5.4 5.4 5.4 5.3 5.4 5.5 5.5 5.7 5.6 5.4 5.5 5.4 5.4 5.5 5.7 5.8 5.9 6.0 6.1 6.3 5.8
Wind_Speed
4 10 10 11 11 12 11 10 10 10 10 12 13 11 11 12 15 13 16 29 27 27 27 27 27 25 26 28 28 28 27 22 18 15 13 16 16 18 18 22 26 27 27
9 8 7 8 10 12 12 11 7 6 5 8 7 12 9 15 17 17 16 21 27 26 26 24 24 26 27 26 27 27 27 27 25 24 20 16 17 18 15 15 22 27 28
12 10 7 5 8 11 11 11 9 10 5 7 6 8 12 17 18 18 18 17 16 24 23 24 25 24 25 24 26 26 25 25 25 24 22 22 21 18 18 18 18 21 26
13 11 5 5 10 12 9 5 4 4 4 4 4 5 7 15 16 18 18 17 17 17 19 22 24 22 24 25 26 25 26 25 23 23 22 21 22 21 19 19 21 21 21
12 12 8 8 11 9 6 3 4 3 3 3 5 7 7 8 12 16 16 17 19 18 17 18 19 23 24 27 26 26 27 26 25 24 22 21 22 23 22 21 20 21 22
12 13 10 9 11 4 4 3 4 4 3 3 8 8 8 7 12 11 12 15 17 19 18 19 17 18 23 26 27 28 27 27 26 26 25 24 21 20 22 20 22 20 21
12 12 8 8 8 4 4 3 2 5 7 4 5 8 7 8 8 6 11 11 13 16 17 18 18 17 17 22 27 29 28 26 27 27 26 26 25 22 20 21 21 23 23
12 10 8 5 6 4 5 5 3 2 4 5 3 2 3 2 5 7 4 7 9 13 16 18 19 18 18 17 23 27 28 28 28 28 28 27 26 25 22 22 23 24 26
11 11 10 8 6 4 4 4 4 5 4 4 6 2 2 2 2 2 6 5 7 6 11 15 17 18 16 15 19 22 28 29 29 29 29 28 28 28 28 25 22 22 23
10 12 11 10 7 5 5 4 4 4 4 4 3 6 7 3 3 2 3 3 6 7 5 11 11 13 16 13 19 23 25 27 28 29 29 30 30 30 29 29 27 25 24
10 11 11 10 7 5 4 5 6 6 5 4 3 2 4 5 4 2 2 2 2 5 6 9 12 13 11 14 12 18 24 26 28 28 29 30 31 31 31 30 30 28 26
4 8 10 9 9 7 5 4 6 7 6 5 5 5 3 2 1 3 3 1 1 4 4 7 10 12 14 14 13 15 19 23 25 27 28 29 30 30 31 31 31 30 29
2 4 5 5 4 7 9 10 6 6 5 5 5 4 4 3 2 2 2 1 2 2 2 5 10 11 15 14 16 15 16 20 22 25 26 28 28 29 30 30 31 31 31
4 6 7 9 9 11 11 12 5 5 5 5 6 5 3 3 3 2 2 1 2 2 3 3 5 12 14 15 17 15 12 17 19 22 24 26 28 28 29 30 30 31 32
4 7 9 7 10 11 12 11 6 6 7 5 5 5 3 3 4 3 3 2 2 1 3 4 4 12 14 15 17 17 11 15 18 19 21 25 27 28 28 29 30 30 32
6 7 7 8 9 10 11 10 6 5 7 4 5 7 5 3 4 4 3 3 3 2 2 2 3 3 12 12 15 19 17 16 16 17 17 22 25 27 28 28 29 30 30
7 8 8 7 7 8 8 8 7 6 8 6 5 7 6 4 4 4 4 4 4 2 2 2 3 5 6 8 15 18 16 14 19 17 17 21 23 24 27 28 29 29 30
9 8 8 8 7 6 6 7 7 5 6 7 6 7 6 6 6 5 4 5 4 4 2 2 4 4 3 12 9 9 13 12 16 15 18 18 21 23 26 27 28 29 29
8 8 7 8 7 6 7 5 8 8 8 6 7 6 5 7 6 4 5 4 3 6 5 3 1 2 2 7 4 6 10 11 14 15 18 16 18 21 23 27 28 29 29
9 7 6 6 6 5 7 7 7 7 7 7 4 5 6 7 6 6 5 3 3 6 5 3 3 2 1 3 2 3 4 3 6 15 13 19 14 17 23 24 27 28 29
8 7 8 6 6 7 6 9 9 7 8 6 3 2 7 12 13 10 4 1 5 3 3 3 2 2 2 3 2 3 2 2 1 13 4 8 12 13 14 18 23 26 28
9 9 9 10 8 6 19 17 11 7 7 7 6 6 9 10 11 12 12 13 10 3 2 2 1 2 3 2 2 2 2 3 3 11 3 3 12 5 13 17 25 26 27
10 10 9 9 6 6 17 17 16 6 6 5 5 5 6 6 5 5 10 12 11 9 4 2 2 2 1 2 3 3 2 2 1 3 3 3 8 4 14 16 26 25 26
10 10 9 8 7 5 12 15 18 10 8 6 5 6 6 4 7 8 6 4 4 4 4 1 2 2 1 2 5 6 4 5 1 2 8 3 3 2 8 14 23 25 25
9 9 8 9 8 6 13 23 16 10 9 7 6 9 8 6 9 11 5 6 4 4 7 13 11 12 12 12 12 6 6 5 2 2 4 2 3 3 2 3 15 24 23
10 8 9 8 12 7 15 20 15 8 9 7 6 8 12 9 10 10 6 4 5 3 3 5 6 11 13 13 14 11 3 4 2 2 2 2 3 3 3 2 7 15 15
Wind_Direction
88 82 77 74 64 61 53 40 35 31 34 29 30 28 27 42 67 63 55 57 55 53 51 47 43 39 38 33 25 18 17 14 356 336 320 348 340 348 275 248 227 214 208
96 88 74 59 60 62 59 53 44 40 36 27 26 21 35 70 60 53 50 62 57 54 49 43 39 35 32 28 22 16 15 12 6 2 357 3 358 354 353 309 248 221 211
95 92 78 65 67 62 62 50 46 53 37 30 37 34 60 70 62 56 50 47 49 50 49 46 42 37 33 29 26 18 12 9 5 3 358 352 350 346 337 339 337 244 225
99 93 81 76 77 63 59 52 35 45 39 40 42 45 62 79 72 63 57 52 49 46 39 43 42 33 32 27 23 15 14 10 5 360 358 357 349 341 338 335 328 330 249
95 87 79 85 79 64 51 46 42 57 36 33 73 72 73 69 66 68 59 53 51 48 43 39 38 34 30 28 23 17 14 10 8 5 1 358 357 352 350 342 324 315 306
91 88 81 82 79 64 45 61 74 44 55 37 89 73 73 75 73 66 57 55 52 47 42 36 34 30 28 27 23 22 18 14 9 12 9 2 358 351 350 337 341 321 306
93 87 80 85 79 73 60 48 79 48 31 23 102 82 70 73 72 72 63 56 51 49 45 42 34 30 24 25 24 23 19 17 15 15 10 10 5 357 352 352 340 330 325
92 89 95 94 92 85 65 60 77 115 57 15 109 84 157 124 67 56 57 64 52 49 47 45 36 35 27 24 24 24 19 18 18 16 18 10 9 6 1 1 350 346 341
91 95 99 95 90 87 80 70 74 98 128 36 47 123 116 158 130 33 56 67 59 58 60 46 46 39 28 21 19 24 22 20 18 18 19 16 12 11 11 3 358 352 342
99 101 103 98 92 90 85 85 73 76 99 117 78 49 58 91 136 122 25 35 77 68 46 52 49 40 31 25 23 24 25 22 19 18 18 17 15 14 12 11 9 3 352
109 106 108 103 101 100 94 97 79 73 69 87 85 119 55 53 49 119 111 352 20 74 61 48 48 28 17 12 28 16 24 21 19 19 17 17 15 13 12 11 11 9 4
101 108 112 113 110 108 100 95 85 84 82 75 74 71 89 114 54 93 99 242 96 93 79 51 36 35 13 5 3 19 21 22 18 18 18 16 15 12 12 11 10 10 9
124 138 125 111 98 112 107 97 85 89 93 91 88 84 76 79 80 59 95 146 103 108 62 72 36 23 14 1 354 18 12 24 20 18 18 18 16 14 12 12 10 10 12
147 152 123 108 103 101 95 91 83 82 85 91 100 95 97 84 78 81 106 98 114 66 80 345 46 23 10 4 358 11 5 18 23 20 21 21 18 16 15 13 12 13 14
144 134 115 99 95 87 90 88 84 80 79 74 79 90 77 48 47 38 56 67 99 119 62 17 7 26 3 3 2 3 0 18 14 20 19 19 20 17 18 17 15 13 17
126 117 101 96 94 87 90 94 83 72 86 68 76 81 66 51 58 48 45 38 43 64 108 347 28 350 10 3 5 8 5 25 9 21 22 19 18 20 18 19 19 15 16
129 118 115 103 98 98 93 92 89 91 91 86 73 81 71 58 61 49 47 41 41 34 112 81 32 351 17 359 356 0 5 15 12 23 23 23 20 21 21 20 19 19 17
119 117 109 105 103 98 95 104 104 94 101 95 84 78 63 72 57 47 47 43 31 14 98 103 8 352 15 360 342 354 3 10 7 18 21 26 21 21 23 22 22 20 19
119 111 109 113 113 111 107 98 109 108 101 95 88 90 76 74 57 47 46 46 27 61 49 83 17 324 315 15 342 342 9 2 19 24 25 21 23 22 21 22 21 21 20
117 108 109 113 116 116 118 120 122 116 109 97 92 106 98 88 89 73 65 39 58 70 64 60 43 337 13 312 324 339 340 2 21 13 4 19 10 15 19 17 20 19 20
118 125 124 124 121 129 136 135 137 132 121 106 83 106 120 112 94 91 94 63 78 73 60 54 40 7 344 348 2 297 301 311 283 22 333 351 357 354 358 2 21 18 19
137 139 147 144 144 147 153 149 146 138 125 120 123 96 85 85 102 104 101 95 100 103 78 82 5 46 327 254 300 306 309 354 343 358 351 313 7 343 346 12 21 22 20
150 150 155 154 154 152 166 165 160 141 127 126 125 112 101 80 107 137 105 94 85 85 109 133 114 236 314 272 317 341 325 341 187 290 25 319 358 332 354 7 22 21 20
160 164 166 162 153 161 159 152 133 120 113 110 115 104 99 68 90 139 113 88 68 51 36 360 61 343 84 98 21 3 325 345 221 332 7 7 328 306 329 18 20 19 16
163 171 163 155 156 150 151 141 127 121 119 119 115 106 95 80 97 126 114 107 67 29 39 84 77 59 43 35 33 7 11 12 354 310 339 342 319 311 317 330 18 17 13
167 162 158 161 161 152 149 151 138 131 128 130 120 109 108 106 102 104 103 98 84 29 49 59 40 46 42 38 39 42 355 13 342 335 279 36 325 5 341 305 353 5 10